contact:dominique.lefevre@mio.osupytheas.fr, maurice.libes@osupytheas.fr, didier.mallarino@osupytheas.fr
Project:EMSO http://www.emso-fr.org/EMSO-France
Depth: 2436.0 m
Title:EMSO Ligure Ouest : Data MII capteur MICROCAT
DateTime_Computer,Latitude,Longitude,Temperature,Conductivity,Pressure,DateTime_Instrument
DateTime_Computer,Latitude,Longitude,degC,S m-1,dbar,DateTime_Instrument
2023-07-11T00:01:39Z,42.805,6.029,13.3037,4.60102,2470.787,2023-7-11T02:03:55Z
2023-07-11T00:04:42Z,42.805,6.029,13.3031,4.60099,2470.763,2023-7-11T02:06:58Z
2023-07-11T00:07:45Z,42.805,6.029,13.3031,4.60099,2470.777,2023-7-11T02:10:01Z
2023-07-11T00:10:48Z,42.805,6.029,13.3033,4.60099,2470.824,2023-7-11T02:13:04Z
2023-07-11T00:13:51Z,42.805,6.029,13.3035,4.60099,2470.8,2023-7-11T02:16:07Z
2023-07-11T00:16:54Z,42.805,6.029,13.3033,4.60099,2470.787,2023-7-11T02:19:10Z
2023-07-11T00:19:57Z,42.805,6.029,13.3037,4.60104,2470.787,2023-7-11T02:22:13Z
2023-07-11T00:23:00Z,42.805,6.029,13.3031,4.60106,2470.824,2023-7-11T02:25:17Z
2023-07-11T00:26:03Z,42.805,6.029,13.3035,4.60104,2470.763,2023-7-11T02:28:20Z
2023-07-11T00:29:06Z,42.805,6.029,13.3034,4.60099,2470.787,2023-7-11T02:31:23Z
2023-07-11T00:32:10Z,42.805,6.029,13.3036,4.60100,2470.81,2023-7-11T02:34:26Z
2023-07-11T00:35:13Z,42.805,6.029,13.3033,4.60100,2470.8,2023-7-11T02:37:29Z
2023-07-11T00:38:16Z,42.805,6.029,13.3036,4.60112,2470.8,2023-7-11T02:40:32Z
2023-07-11T00:41:19Z,42.805,6.029,13.3039,4.60141,2470.787,2023-7-11T02:43:35Z
2023-07-11T00:44:22Z,42.805,6.029,13.3034,4.60115,2470.777,2023-7-11T02:46:38Z
2023-07-11T00:47:25Z,42.805,6.029,13.3032,4.60107,2470.787,2023-7-11T02:49:41Z
2023-07-11T00:50:28Z,42.805,6.029,13.3027,4.60103,2470.81,2023-7-11T02:52:44Z
2023-07-11T00:53:31Z,42.805,6.029,13.3034,4.60099,2470.787,2023-7-11T02:55:47Z
2023-07-11T00:56:34Z,42.805,6.029,13.3030,4.60102,2470.8,2023-7-11T02:58:50Z
2023-07-11T00:59:37Z,42.805,6.029,13.3033,4.60098,2470.787,2023-7-11T03:01:54Z
2023-07-11T01:02:40Z,42.805,6.029,13.3034,4.60099,2470.81,2023-7-11T03:04:57Z
2023-07-11T01:05:43Z,42.805,6.029,13.3032,4.60103,2470.824,2023-7-11T03:08:00Z
2023-07-11T01:08:46Z,42.805,6.029,13.3034,4.60110,2470.824,2023-7-11T03:11:03Z
2023-07-11T01:11:50Z,42.805,6.029,13.3035,4.60106,2470.81,2023-7-11T03:14:06Z
2023-07-11T01:14:53Z,42.805,6.029,13.3033,4.60103,2470.838,2023-7-11T03:17:09Z
2023-07-11T01:17:56Z,42.805,6.029,13.3031,4.60099,2470.787,2023-7-11T03:20:12Z
2023-07-11T01:20:59Z,42.805,6.029,13.3031,4.60099,2470.81,2023-7-11T03:23:15Z
2023-07-11T01:24:02Z,42.805,6.029,13.3030,4.60098,2470.81,2023-7-11T03:26:18Z
2023-07-11T01:27:05Z,42.805,6.029,13.3031,4.60097,2470.847,2023-7-11T03:29:21Z
2023-07-11T01:30:08Z,42.805,6.029,13.3032,4.60107,2470.787,2023-7-11T03:32:24Z
2023-07-11T01:33:11Z,42.805,6.029,13.3029,4.60101,2470.8,2023-7-11T03:35:27Z
2023-07-11T01:36:14Z,42.805,6.029,13.3033,4.60112,2470.787,2023-7-11T03:38:31Z
2023-07-11T01:39:17Z,42.805,6.029,13.3037,4.60117,2470.787,2023-7-11T03:41:34Z
2023-07-11T01:42:20Z,42.805,6.029,13.3039,4.60117,2470.787,2023-7-11T03:44:37Z
2023-07-11T01:45:24Z,42.805,6.029,13.3031,4.60113,2470.787,2023-7-11T03:47:40Z
2023-07-11T01:48:27Z,42.805,6.029,13.3033,4.60099,2470.81,2023-7-11T03:50:43Z
2023-07-11T01:51:30Z,42.805,6.029,13.3034,4.60102,2470.787,2023-7-11T03:53:46Z
2023-07-11T01:54:33Z,42.805,6.029,13.3030,4.60097,2470.763,2023-7-11T03:56:49Z
2023-07-11T01:57:36Z,42.805,6.029,13.3028,4.60099,2470.833,2023-7-11T03:59:52Z
2023-07-11T02:00:39Z,42.805,6.029,13.3030,4.60099,2470.777,2023-7-11T04:02:55Z
2023-07-11T02:03:42Z,42.805,6.029,13.3031,4.60100,2470.787,2023-7-11T04:05:58Z
2023-07-11T02:06:45Z,42.805,6.029,13.3036,4.60101,2470.787,2023-7-11T04:09:01Z
2023-07-11T02:09:48Z,42.805,6.029,13.3030,4.60099,2470.8,2023-7-11T04:12:04Z
2023-07-11T02:12:51Z,42.805,6.029,13.3029,4.60128,2470.787,2023-7-11T04:15:08Z
2023-07-11T02:15:54Z,42.805,6.029,13.3031,4.60103,2470.763,2023-7-11T04:18:11Z
2023-07-11T02:18:57Z,42.805,6.029,13.3028,4.60104,2470.824,2023-7-11T04:21:14Z
2023-07-11T02:22:01Z,42.805,6.029,13.3039,4.60146,2470.787,2023-7-11T04:24:17Z
2023-07-11T02:25:04Z,42.805,6.029,13.3034,4.60106,2470.787,2023-7-11T04:27:20Z
2023-07-11T02:28:07Z,42.805,6.029,13.3028,4.60114,2470.824,2023-7-11T04:30:23Z
2023-07-11T02:31:10Z,42.805,6.029,13.3031,4.60106,2470.81,2023-7-11T04:33:26Z
2023-07-11T02:34:13Z,42.805,6.029,13.3033,4.60110,2470.777,2023-7-11T04:36:29Z
2023-07-11T02:37:16Z,42.805,6.029,13.3031,4.60105,2470.787,2023-7-11T04:39:32Z
2023-07-11T02:40:19Z,42.805,6.029,13.3032,4.60103,2470.81,2023-7-11T04:42:35Z
2023-07-11T02:43:22Z,42.805,6.029,13.3029,4.60099,2470.763,2023-7-11T04:45:38Z
2023-07-11T02:46:25Z,42.805,6.029,13.3033,4.60099,2470.787,2023-7-11T04:48:41Z
2023-07-11T02:49:28Z,42.805,6.029,13.3034,4.60116,2470.777,2023-7-11T04:51:45Z
2023-07-11T02:52:31Z,42.805,6.029,13.3028,4.60099,2470.754,2023-7-11T04:54:48Z
2023-07-11T02:55:34Z,42.805,6.029,13.3032,4.60111,2470.8,2023-7-11T04:57:51Z
2023-07-11T02:58:38Z,42.805,6.029,13.3030,4.60098,2470.777,2023-7-11T05:00:54Z
2023-07-11T03:01:41Z,42.805,6.029,13.3031,4.60106,2470.754,2023-7-11T05:03:57Z
2023-07-11T03:04:44Z,42.805,6.029,13.3033,4.60150,2470.777,2023-7-11T05:07:00Z
2023-07-11T03:07:47Z,42.805,6.029,13.3031,4.60113,2470.74,2023-7-11T05:10:03Z
2023-07-11T03:10:50Z,42.805,6.029,13.3033,4.60102,2470.8,2023-7-11T05:13:06Z
2023-07-11T03:13:53Z,42.805,6.029,13.3031,4.60104,2470.777,2023-7-11T05:16:09Z
2023-07-11T03:16:56Z,42.805,6.029,13.3032,4.60108,2470.8,2023-7-11T05:19:12Z
2023-07-11T03:19:59Z,42.805,6.029,13.3033,4.60108,2470.787,2023-7-11T05:22:15Z
2023-07-11T03:23:02Z,42.805,6.029,13.3031,4.60110,2470.74,2023-7-11T05:25:18Z
2023-07-11T03:26:05Z,42.805,6.029,13.3031,4.60105,2470.763,2023-7-11T05:28:21Z
2023-07-11T03:29:08Z,42.805,6.029,13.3033,4.60102,2470.763,2023-7-11T05:31:25Z
2023-07-11T03:32:11Z,42.805,6.029,13.3034,4.60109,2470.754,2023-7-11T05:34:28Z
2023-07-11T03:35:14Z,42.805,6.029,13.3032,4.60178,2470.74,2023-7-11T05:37:31Z
2023-07-11T03:38:18Z,42.805,6.029,13.3044,4.60144,2470.763,2023-7-11T05:40:34Z
2023-07-11T03:41:21Z,42.805,6.029,13.3048,4.60120,2470.8,2023-7-11T05:43:37Z
2023-07-11T03:44:24Z,42.805,6.029,13.3109,4.60118,2470.763,2023-7-11T05:46:40Z
2023-07-11T03:47:27Z,42.805,6.029,13.3055,4.60127,2470.777,2023-7-11T05:49:43Z
2023-07-11T03:50:30Z,42.805,6.029,13.3069,4.60106,2470.777,2023-7-11T05:52:46Z
2023-07-11T03:53:33Z,42.805,6.029,13.3074,4.60139,2470.763,2023-7-11T05:55:49Z
2023-07-11T03:56:36Z,42.805,6.029,13.3069,4.60166,2470.777,2023-7-11T05:58:52Z
2023-07-11T03:59:39Z,42.805,6.029,13.3074,4.60160,2470.777,2023-7-11T06:01:55Z
2023-07-11T04:02:42Z,42.805,6.029,13.3084,4.60134,2470.754,2023-7-11T06:04:59Z
2023-07-11T04:05:45Z,42.805,6.029,13.3084,4.60125,2470.754,2023-7-11T06:08:02Z
2023-07-11T04:08:48Z,42.805,6.029,13.3081,4.60110,2470.763,2023-7-11T06:11:05Z
2023-07-11T04:11:51Z,42.805,6.029,13.3037,4.60125,2470.74,2023-7-11T06:14:08Z
2023-07-11T04:14:55Z,42.805,6.029,13.3040,4.60112,2470.754,2023-7-11T06:17:11Z
2023-07-11T04:17:58Z,42.805,6.029,13.3047,4.60119,2470.74,2023-7-11T06:20:14Z
2023-07-11T04:21:01Z,42.805,6.029,13.3036,4.60119,2470.74,2023-7-11T06:23:17Z
2023-07-11T04:24:04Z,42.805,6.029,13.3043,4.60106,2470.73,2023-7-11T06:26:20Z
2023-07-11T04:27:07Z,42.805,6.029,13.3038,4.60107,2470.74,2023-7-11T06:29:23Z
2023-07-11T04:30:10Z,42.805,6.029,13.3033,4.60111,2470.73,2023-7-11T06:32:26Z
2023-07-11T04:33:13Z,42.805,6.029,13.3051,4.60104,2470.754,2023-7-11T06:35:29Z
2023-07-11T04:36:16Z,42.805,6.029,13.3066,4.60113,2470.754,2023-7-11T06:38:32Z
2023-07-11T04:39:19Z,42.805,6.029,13.3055,4.60130,2470.73,2023-7-11T06:41:36Z
2023-07-11T04:42:22Z,42.805,6.029,13.3066,4.60145,2470.754,2023-7-11T06:44:39Z
2023-07-11T04:45:25Z,42.805,6.029,13.3064,4.60153,2470.707,2023-7-11T06:47:42Z
2023-07-11T04:48:28Z,42.805,6.029,13.3054,4.60170,2470.754,2023-7-11T06:50:45Z
2023-07-11T04:51:32Z,42.805,6.029,13.3091,4.60149,2470.74,2023-7-11T06:53:48Z
2023-07-11T04:54:35Z,42.805,6.029,13.3058,4.60210,2470.74,2023-7-11T06:56:51Z
2023-07-11T04:57:38Z,42.805,6.029,13.3081,4.60147,2470.717,2023-7-11T06:59:54Z
2023-07-11T05:00:41Z,42.805,6.029,13.3093,4.60147,2470.754,2023-7-11T07:02:57Z
2023-07-11T05:03:44Z,42.805,6.029,13.3067,4.60140,2470.717,2023-7-11T07:06:00Z
2023-07-11T05:06:47Z,42.805,6.029,13.3106,4.60138,2470.717,2023-7-11T07:09:03Z
2023-07-11T05:09:50Z,42.805,6.029,13.3077,4.60149,2470.754,2023-7-11T07:12:06Z
2023-07-11T05:12:53Z,42.805,6.029,13.3102,4.60170,2470.717,2023-7-11T07:15:09Z
2023-07-11T05:15:56Z,42.805,6.029,13.3099,4.60170,2470.74,2023-7-11T07:18:12Z
2023-07-11T05:18:59Z,42.805,6.029,13.3084,4.60159,2470.73,2023-7-11T07:21:16Z
2023-07-11T05:22:02Z,42.805,6.029,13.3096,4.60188,2470.693,2023-7-11T07:24:19Z
2023-07-11T05:25:05Z,42.805,6.029,13.3065,4.60173,2470.73,2023-7-11T07:27:22Z
2023-07-11T05:28:09Z,42.805,6.029,13.3106,4.60166,2470.777,2023-7-11T07:30:25Z
2023-07-11T05:31:12Z,42.805,6.029,13.3103,4.60160,2470.74,2023-7-11T07:33:28Z
2023-07-11T05:34:15Z,42.805,6.029,13.3125,4.60147,2470.707,2023-7-11T07:36:31Z
2023-07-11T05:37:18Z,42.805,6.029,13.3096,4.60128,2470.693,2023-7-11T07:39:34Z
2023-07-11T05:40:21Z,42.805,6.029,13.3089,4.60152,2470.717,2023-7-11T07:42:37Z
2023-07-11T05:43:24Z,42.805,6.029,13.3103,4.60111,2470.684,2023-7-11T07:45:40Z
2023-07-11T05:46:27Z,42.805,6.029,13.3110,4.60106,2470.73,2023-7-11T07:48:43Z
2023-07-11T05:49:30Z,42.805,6.029,13.3090,4.60119,2470.707,2023-7-11T07:51:46Z
2023-07-11T05:52:33Z,42.805,6.029,13.3081,4.60112,2470.73,2023-7-11T07:54:50Z
2023-07-11T05:55:36Z,42.805,6.029,13.3075,4.60150,2470.693,2023-7-11T07:57:53Z
2023-07-11T05:58:39Z,42.805,6.029,13.3075,4.60188,2470.693,2023-7-11T08:00:56Z
2023-07-11T06:01:42Z,42.805,6.029,13.3090,4.60163,2470.73,2023-7-11T08:03:59Z
2023-07-11T06:04:46Z,42.805,6.029,13.3092,4.60123,2470.707,2023-7-11T08:07:02Z
2023-07-11T06:07:49Z,42.805,6.029,13.3085,4.60134,2470.67,2023-7-11T08:10:05Z
2023-07-11T06:10:52Z,42.805,6.029,13.3081,4.60129,2470.67,2023-7-11T08:13:08Z
2023-07-11T06:13:55Z,42.805,6.029,13.3102,4.60160,2470.707,2023-7-11T08:16:11Z
2023-07-11T06:16:58Z,42.805,6.029,13.3093,4.60117,2470.693,2023-7-11T08:19:14Z
2023-07-11T06:20:01Z,42.805,6.029,13.3110,4.60125,2470.684,2023-7-11T08:22:17Z
2023-07-11T06:23:04Z,42.805,6.029,13.3106,4.60107,2470.684,2023-7-11T08:25:20Z
2023-07-11T06:26:07Z,42.805,6.029,13.3101,4.60102,2470.661,2023-7-11T08:28:23Z
2023-07-11T06:29:10Z,42.805,6.029,13.3091,4.60108,2470.707,2023-7-11T08:31:27Z
2023-07-11T06:32:12Z,42.805,6.029,13.3082,4.60109,2470.707,2023-7-11T08:34:28Z
2023-07-11T06:35:15Z,42.805,6.029,13.3085,4.60110,2470.707,2023-7-11T08:37:31Z
2023-07-11T06:38:18Z,42.805,6.029,13.3094,4.60121,2470.707,2023-7-11T08:40:34Z
2023-07-11T06:41:21Z,42.805,6.029,13.3096,4.60122,2470.67,2023-7-11T08:43:38Z
2023-07-11T06:44:24Z,42.805,6.029,13.3107,4.60114,2470.684,2023-7-11T08:46:41Z
2023-07-11T06:47:27Z,42.805,6.029,13.3090,4.60147,2470.661,2023-7-11T08:49:44Z
2023-07-11T06:50:30Z,42.805,6.029,13.3110,4.60121,2470.693,2023-7-11T08:52:47Z
2023-07-11T06:53:34Z,42.805,6.029,13.3089,4.60119,2470.661,2023-7-11T08:55:50Z
2023-07-11T06:56:37Z,42.805,6.029,13.3112,4.60120,2470.646,2023-7-11T08:58:53Z
2023-07-11T06:59:40Z,42.805,6.029,13.3106,4.60116,2470.707,2023-7-11T09:01:56Z
2023-07-11T07:02:43Z,42.805,6.029,13.3107,4.60102,2470.67,2023-7-11T09:04:59Z
2023-07-11T07:05:46Z,42.805,6.029,13.3094,4.60103,2470.661,2023-7-11T09:08:02Z
2023-07-11T07:08:49Z,42.805,6.029,13.3080,4.60108,2470.661,2023-7-11T09:11:05Z
2023-07-11T07:11:52Z,42.805,6.029,13.3089,4.60106,2470.67,2023-7-11T09:14:08Z
2023-07-11T07:14:55Z,42.805,6.029,13.3070,4.60106,2470.646,2023-7-11T09:17:11Z
2023-07-11T07:17:58Z,42.805,6.029,13.3058,4.60108,2470.67,2023-7-11T09:20:15Z
2023-07-11T07:21:01Z,42.805,6.029,13.3079,4.60104,2470.646,2023-7-11T09:23:18Z
2023-07-11T07:24:04Z,42.805,6.029,13.3087,4.60144,2470.646,2023-7-11T09:26:21Z
2023-07-11T07:27:07Z,42.805,6.029,13.3100,4.60117,2470.624,2023-7-11T09:29:24Z
2023-07-11T07:30:11Z,42.805,6.029,13.3070,4.60132,2470.661,2023-7-11T09:32:27Z
2023-07-11T07:33:14Z,42.805,6.029,13.3062,4.60141,2470.646,2023-7-11T09:35:30Z
2023-07-11T07:36:17Z,42.805,6.029,13.3076,4.60160,2470.661,2023-7-11T09:38:33Z
2023-07-11T07:39:20Z,42.805,6.029,13.3096,4.60130,2470.624,2023-7-11T09:41:36Z
2023-07-11T07:42:23Z,42.805,6.029,13.3083,4.60127,2470.67,2023-7-11T09:44:39Z
2023-07-11T07:45:26Z,42.805,6.029,13.3075,4.60129,2470.646,2023-7-11T09:47:42Z
2023-07-11T07:48:29Z,42.805,6.029,13.3091,4.60117,2470.646,2023-7-11T09:50:45Z
2023-07-11T07:51:32Z,42.805,6.029,13.3107,4.60135,2470.684,2023-7-11T09:53:48Z
2023-07-11T07:54:35Z,42.805,6.029,13.3095,4.60125,2470.646,2023-7-11T09:56:52Z
2023-07-11T07:57:38Z,42.805,6.029,13.3078,4.60132,2470.661,2023-7-11T09:59:55Z
2023-07-11T08:00:41Z,42.805,6.029,13.3076,4.60116,2470.646,2023-7-11T10:02:58Z
2023-07-11T08:03:44Z,42.805,6.029,13.3070,4.60110,2470.637,2023-7-11T10:06:01Z
2023-07-11T08:06:48Z,42.805,6.029,13.3088,4.60114,2470.661,2023-7-11T10:09:04Z
2023-07-11T08:09:51Z,42.805,6.029,13.3077,4.60109,2470.661,2023-7-11T10:12:07Z
2023-07-11T08:12:54Z,42.805,6.029,13.3069,4.60118,2470.624,2023-7-11T10:15:10Z
2023-07-11T08:15:57Z,42.805,6.029,13.3091,4.60139,2470.624,2023-7-11T10:18:13Z
2023-07-11T08:19:00Z,42.805,6.029,13.3109,4.60173,2470.646,2023-7-11T10:21:16Z
2023-07-11T08:22:03Z,42.805,6.029,13.3100,4.60181,2470.637,2023-7-11T10:24:19Z
2023-07-11T08:25:06Z,42.805,6.029,13.3104,4.60183,2470.624,2023-7-11T10:27:22Z
2023-07-11T08:28:09Z,42.805,6.029,13.3093,4.60179,2470.661,2023-7-11T10:30:26Z
2023-07-11T08:31:11Z,42.805,6.029,13.3101,4.60165,2470.637,2023-7-11T10:33:27Z
2023-07-11T08:34:14Z,42.805,6.029,13.3108,4.60148,2470.591,2023-7-11T10:36:30Z
2023-07-11T08:37:17Z,42.805,6.029,13.3111,4.60155,2470.646,2023-7-11T10:39:33Z
2023-07-11T08:40:20Z,42.805,6.029,13.3116,4.60154,2470.624,2023-7-11T10:42:36Z
2023-07-11T08:43:23Z,42.805,6.029,13.3114,4.60157,2470.646,2023-7-11T10:45:39Z
2023-07-11T08:46:26Z,42.805,6.029,13.3108,4.60165,2470.637,2023-7-11T10:48:42Z
2023-07-11T08:49:29Z,42.805,6.029,13.3115,4.60170,2470.646,2023-7-11T10:51:45Z
2023-07-11T08:52:32Z,42.805,6.029,13.3118,4.60177,2470.661,2023-7-11T10:54:49Z
2023-07-11T08:55:35Z,42.805,6.029,13.3116,4.60165,2470.684,2023-7-11T10:57:52Z
2023-07-11T08:58:38Z,42.805,6.029,13.3122,4.60174,2470.661,2023-7-11T11:00:55Z
2023-07-11T09:01:41Z,42.805,6.029,13.3119,4.60170,2470.637,2023-7-11T11:03:58Z
2023-07-11T09:04:45Z,42.805,6.029,13.3124,4.60172,2470.624,2023-7-11T11:07:01Z
2023-07-11T09:07:48Z,42.805,6.029,13.3065,4.60173,2470.646,2023-7-11T11:10:04Z
2023-07-11T09:10:51Z,42.805,6.029,13.3081,4.60179,2470.637,2023-7-11T11:13:07Z
2023-07-11T09:13:54Z,42.805,6.029,13.3051,4.60165,2470.637,2023-7-11T11:16:10Z
2023-07-11T09:16:57Z,42.805,6.029,13.3110,4.60178,2470.637,2023-7-11T11:19:13Z
2023-07-11T09:20:00Z,42.805,6.029,13.3107,4.60165,2470.637,2023-7-11T11:22:16Z
2023-07-11T09:23:03Z,42.805,6.029,13.3066,4.60163,2470.637,2023-7-11T11:25:19Z
2023-07-11T09:26:06Z,42.805,6.029,13.3076,4.60167,2470.637,2023-7-11T11:28:22Z
2023-07-11T09:29:09Z,42.805,6.029,13.3051,4.60173,2470.661,2023-7-11T11:31:26Z
2023-07-11T09:32:12Z,42.805,6.029,13.3052,4.60170,2470.624,2023-7-11T11:34:29Z
2023-07-11T09:35:15Z,42.805,6.029,13.3040,4.60182,2470.637,2023-7-11T11:37:32Z
2023-07-11T09:38:19Z,42.805,6.029,13.3035,4.60173,2470.661,2023-7-11T11:40:35Z
2023-07-11T09:41:22Z,42.805,6.029,13.3031,4.60170,2470.637,2023-7-11T11:43:38Z
2023-07-11T09:44:25Z,42.805,6.029,13.3033,4.60174,2470.637,2023-7-11T11:46:41Z
2023-07-11T09:47:28Z,42.805,6.029,13.3028,4.60186,2470.707,2023-7-11T11:49:44Z
2023-07-11T09:50:31Z,42.805,6.029,13.3032,4.60200,2470.624,2023-7-11T11:52:47Z
2023-07-11T09:53:34Z,42.805,6.029,13.3036,4.60180,2470.661,2023-7-11T11:55:50Z
2023-07-11T09:56:37Z,42.805,6.029,13.3028,4.60195,2470.67,2023-7-11T11:58:53Z
2023-07-11T09:59:40Z,42.805,6.029,13.3031,4.60150,2470.661,2023-7-11T12:01:56Z
2023-07-11T10:02:43Z,42.805,6.029,13.3028,4.60194,2470.624,2023-7-11T12:05:00Z
2023-07-11T10:05:46Z,42.805,6.029,13.3032,4.60195,2470.67,2023-7-11T12:08:03Z
2023-07-11T10:08:49Z,42.805,6.029,13.3030,4.60228,2470.67,2023-7-11T12:11:06Z
2023-07-11T10:11:52Z,42.805,6.029,13.3031,4.60195,2470.646,2023-7-11T12:14:09Z
2023-07-11T10:14:56Z,42.805,6.029,13.3031,4.60150,2470.684,2023-7-11T12:17:12Z
2023-07-11T10:17:59Z,42.805,6.029,13.3031,4.60175,2470.661,2023-7-11T12:20:15Z
2023-07-11T10:21:02Z,42.805,6.029,13.3031,4.60205,2470.661,2023-7-11T12:23:18Z
2023-07-11T10:24:05Z,42.805,6.029,13.3031,4.60227,2470.646,2023-7-11T12:26:21Z
2023-07-11T10:27:08Z,42.805,6.029,13.3030,4.60228,2470.684,2023-7-11T12:29:24Z
2023-07-11T10:30:09Z,42.805,6.029,13.3027,4.60194,2470.684,2023-7-11T12:32:26Z
2023-07-11T10:33:12Z,42.805,6.029,13.3031,4.60226,2470.646,2023-7-11T12:35:29Z
2023-07-11T10:36:15Z,42.805,6.029,13.3029,4.60210,2470.661,2023-7-11T12:38:32Z
2023-07-11T10:39:18Z,42.805,6.029,13.3029,4.60188,2470.684,2023-7-11T12:41:35Z
2023-07-11T10:42:22Z,42.805,6.029,13.3031,4.60148,2470.661,2023-7-11T12:44:38Z
2023-07-11T10:45:25Z,42.805,6.029,13.3031,4.60144,2470.684,2023-7-11T12:47:41Z
2023-07-11T10:48:28Z,42.805,6.029,13.3033,4.60137,2470.67,2023-7-11T12:50:44Z
2023-07-11T10:51:31Z,42.805,6.029,13.3033,4.60132,2470.693,2023-7-11T12:53:47Z
2023-07-11T10:54:34Z,42.805,6.029,13.3031,4.60140,2470.67,2023-7-11T12:56:50Z
2023-07-11T10:57:37Z,42.805,6.029,13.3032,4.60135,2470.646,2023-7-11T12:59:53Z
2023-07-11T11:00:40Z,42.805,6.029,13.3031,4.60152,2470.646,2023-7-11T13:02:56Z
2023-07-11T11:03:43Z,42.805,6.029,13.3029,4.60147,2470.693,2023-7-11T13:06:00Z
2023-07-11T11:06:46Z,42.805,6.029,13.3037,4.60153,2470.67,2023-7-11T13:09:03Z
2023-07-11T11:09:49Z,42.805,6.029,13.3033,4.60140,2470.67,2023-7-11T13:12:06Z
2023-07-11T11:12:52Z,42.805,6.029,13.3025,4.60127,2470.707,2023-7-11T13:15:09Z
2023-07-11T11:15:56Z,42.805,6.029,13.3031,4.60135,2470.67,2023-7-11T13:18:12Z
2023-07-11T11:18:59Z,42.805,6.029,13.3034,4.60140,2470.717,2023-7-11T13:21:15Z
2023-07-11T11:22:02Z,42.805,6.029,13.3033,4.60134,2470.67,2023-7-11T13:24:18Z
2023-07-11T11:25:05Z,42.805,6.029,13.3031,4.60132,2470.693,2023-7-11T13:27:21Z
2023-07-11T11:28:08Z,42.805,6.029,13.3033,4.60124,2470.693,2023-7-11T13:30:24Z
2023-07-11T11:31:11Z,42.805,6.029,13.3034,4.60129,2470.693,2023-7-11T13:33:27Z
2023-07-11T11:34:14Z,42.805,6.029,13.3032,4.60129,2470.67,2023-7-11T13:36:30Z
2023-07-11T11:37:17Z,42.805,6.029,13.3034,4.60125,2470.707,2023-7-11T13:39:33Z
2023-07-11T11:40:20Z,42.805,6.029,13.3036,4.60130,2470.67,2023-7-11T13:42:37Z
2023-07-11T11:43:23Z,42.805,6.029,13.3031,4.60127,2470.717,2023-7-11T13:45:40Z
2023-07-11T11:46:26Z,42.805,6.029,13.3030,4.60130,2470.693,2023-7-11T13:48:43Z
2023-07-11T11:49:30Z,42.805,6.029,13.3034,4.60125,2470.74,2023-7-11T13:51:46Z
2023-07-11T11:52:33Z,42.805,6.029,13.3030,4.60117,2470.707,2023-7-11T13:54:49Z
2023-07-11T11:55:36Z,42.805,6.029,13.3031,4.60117,2470.707,2023-7-11T13:57:52Z
2023-07-11T11:58:39Z,42.805,6.029,13.3031,4.60117,2470.707,2023-7-11T14:00:55Z
2023-07-11T12:01:42Z,42.805,6.029,13.3031,4.60123,2470.73,2023-7-11T14:03:58Z
2023-07-11T12:04:45Z,42.805,6.029,13.3034,4.60125,2470.707,2023-7-11T14:07:01Z
2023-07-11T12:07:48Z,42.805,6.029,13.3033,4.60119,2470.67,2023-7-11T14:10:04Z
2023-07-11T12:10:51Z,42.805,6.029,13.3028,4.60125,2470.707,2023-7-11T14:13:08Z
2023-07-11T12:13:54Z,42.805,6.029,13.3028,4.60123,2470.693,2023-7-11T14:16:11Z
2023-07-11T12:16:57Z,42.805,6.029,13.3031,4.60120,2470.73,2023-7-11T14:19:14Z
2023-07-11T12:20:00Z,42.805,6.029,13.3027,4.60122,2470.73,2023-7-11T14:22:17Z
2023-07-11T12:23:04Z,42.805,6.029,13.3030,4.60123,2470.717,2023-7-11T14:25:20Z
2023-07-11T12:26:07Z,42.805,6.029,13.3033,4.60124,2470.717,2023-7-11T14:28:23Z
2023-07-11T12:29:10Z,42.805,6.029,13.3034,4.60126,2470.717,2023-7-11T14:31:26Z
2023-07-11T12:32:13Z,42.805,6.029,13.3030,4.60128,2470.693,2023-7-11T14:34:29Z
2023-07-11T12:35:16Z,42.805,6.029,13.3031,4.60130,2470.707,2023-7-11T14:37:32Z
2023-07-11T12:38:19Z,42.805,6.029,13.3030,4.60130,2470.717,2023-7-11T14:40:35Z
2023-07-11T12:41:22Z,42.805,6.029,13.3033,4.60128,2470.73,2023-7-11T14:43:38Z
2023-07-11T12:44:25Z,42.805,6.029,13.3031,4.60126,2470.717,2023-7-11T14:46:41Z
2023-07-11T12:47:28Z,42.805,6.029,13.3030,4.60127,2470.73,2023-7-11T14:49:45Z
2023-07-11T12:50:31Z,42.805,6.029,13.3031,4.60140,2470.74,2023-7-11T14:52:48Z
2023-07-11T12:53:34Z,42.805,6.029,13.3031,4.60124,2470.693,2023-7-11T14:55:51Z
2023-07-11T12:56:38Z,42.805,6.029,13.3029,4.60127,2470.717,2023-7-11T14:58:54Z
2023-07-11T12:59:41Z,42.805,6.029,13.3029,4.60127,2470.717,2023-7-11T15:01:57Z
2023-07-11T13:02:44Z,42.805,6.029,13.3036,4.60132,2470.754,2023-7-11T15:05:00Z
2023-07-11T13:05:47Z,42.805,6.029,13.3033,4.60128,2470.74,2023-7-11T15:08:03Z
2023-07-11T13:08:50Z,42.805,6.029,13.3031,4.60119,2470.754,2023-7-11T15:11:06Z
2023-07-11T13:11:53Z,42.805,6.029,13.3030,4.60124,2470.717,2023-7-11T15:14:09Z
2023-07-11T13:14:56Z,42.805,6.029,13.3030,4.60137,2470.693,2023-7-11T15:17:12Z
2023-07-11T13:17:59Z,42.805,6.029,13.3031,4.60119,2470.73,2023-7-11T15:20:15Z
2023-07-11T13:21:02Z,42.805,6.029,13.3031,4.60120,2470.73,2023-7-11T15:23:19Z
2023-07-11T13:24:05Z,42.805,6.029,13.3029,4.60102,2470.754,2023-7-11T15:26:22Z
2023-07-11T13:27:08Z,42.805,6.029,13.3030,4.60114,2470.717,2023-7-11T15:29:25Z
2023-07-11T13:30:11Z,42.805,6.029,13.3034,4.60101,2470.73,2023-7-11T15:32:28Z
2023-07-11T13:33:15Z,42.805,6.029,13.3034,4.60095,2470.717,2023-7-11T15:35:31Z
2023-07-11T13:36:18Z,42.805,6.029,13.3039,4.60099,2470.693,2023-7-11T15:38:34Z
2023-07-11T13:39:21Z,42.805,6.029,13.3035,4.60099,2470.74,2023-7-11T15:41:37Z
2023-07-11T13:42:24Z,42.805,6.029,13.3038,4.60102,2470.717,2023-7-11T15:44:40Z
2023-07-11T13:45:27Z,42.805,6.029,13.3034,4.60098,2470.707,2023-7-11T15:47:43Z
2023-07-11T13:48:30Z,42.805,6.029,13.3043,4.60101,2470.73,2023-7-11T15:50:46Z
2023-07-11T13:51:33Z,42.805,6.029,13.3040,4.60099,2470.754,2023-7-11T15:53:49Z
2023-07-11T13:54:36Z,42.805,6.029,13.3030,4.60099,2470.754,2023-7-11T15:56:53Z
2023-07-11T13:57:39Z,42.805,6.029,13.3031,4.60104,2470.717,2023-7-11T15:59:56Z
2023-07-11T14:00:42Z,42.805,6.029,13.3037,4.60101,2470.763,2023-7-11T16:02:59Z
2023-07-11T14:03:45Z,42.805,6.029,13.3031,4.60102,2470.717,2023-7-11T16:06:02Z
2023-07-11T14:06:49Z,42.805,6.029,13.3032,4.60106,2470.73,2023-7-11T16:09:05Z
2023-07-11T14:09:52Z,42.805,6.029,13.3030,4.60098,2470.754,2023-7-11T16:12:08Z
2023-07-11T14:12:55Z,42.805,6.029,13.3029,4.60093,2470.754,2023-7-11T16:15:11Z
2023-07-11T14:15:58Z,42.805,6.029,13.3026,4.60093,2470.754,2023-7-11T16:18:14Z
2023-07-11T14:19:01Z,42.805,6.029,13.3026,4.60094,2470.717,2023-7-11T16:21:17Z
2023-07-11T14:22:04Z,42.805,6.029,13.3031,4.60092,2470.717,2023-7-11T16:24:20Z
2023-07-11T14:25:07Z,42.805,6.029,13.3031,4.60097,2470.754,2023-7-11T16:27:23Z
2023-07-11T14:28:10Z,42.805,6.029,13.3024,4.60103,2470.74,2023-7-11T16:30:26Z
2023-07-11T14:31:12Z,42.805,6.029,13.3029,4.60098,2470.74,2023-7-11T16:33:28Z
2023-07-11T14:34:15Z,42.805,6.029,13.3027,4.60092,2470.754,2023-7-11T16:36:31Z
2023-07-11T14:37:18Z,42.805,6.029,13.3029,4.60092,2470.73,2023-7-11T16:39:34Z
2023-07-11T14:40:21Z,42.805,6.029,13.3025,4.60089,2470.693,2023-7-11T16:42:37Z
2023-07-11T14:43:24Z,42.805,6.029,13.3026,4.60092,2470.717,2023-7-11T16:45:41Z
2023-07-11T14:46:27Z,42.805,6.029,13.3028,4.60092,2470.73,2023-7-11T16:48:44Z
2023-07-11T14:49:30Z,42.805,6.029,13.3026,4.60090,2470.74,2023-7-11T16:51:47Z
2023-07-11T14:52:34Z,42.805,6.029,13.3025,4.60093,2470.74,2023-7-11T16:54:50Z
2023-07-11T14:55:37Z,42.805,6.029,13.3026,4.60091,2470.763,2023-7-11T16:57:53Z
2023-07-11T14:58:40Z,42.805,6.029,13.3025,4.60091,2470.693,2023-7-11T17:00:56Z
2023-07-11T15:01:43Z,42.805,6.029,13.3026,4.60092,2470.717,2023-7-11T17:03:59Z
2023-07-11T15:04:46Z,42.805,6.029,13.3029,4.60092,2470.74,2023-7-11T17:07:02Z
2023-07-11T15:07:49Z,42.805,6.029,13.3031,4.60093,2470.74,2023-7-11T17:10:05Z
2023-07-11T15:10:52Z,42.805,6.029,13.3025,4.60093,2470.754,2023-7-11T17:13:08Z
2023-07-11T15:13:55Z,42.805,6.029,13.3026,4.60094,2470.74,2023-7-11T17:16:11Z